�N����,����,�~����,�C��,���x,�C��,����,���ϕ���,�ő�u�ԕ���,�ő厞����,���˗�,�I�_���x,�n�����x,�ő啗���N��,DTYPE
"17/06/07","00:10",0.0,18.4,66.8,1011.9,309.4,1.5,2.2,321.4,0.00,12.2,20.6,"00:05:52",1
"17/06/07","00:20",0.0,18.4,67.1,1011.6,302.0,1.1,1.7,303.1,0.00,12.2,20.5,"00:19:12",1
"17/06/07","00:30",0.0,18.3,67.1,1011.2,306.2,1.0,1.6,305.5,0.00,12.1,20.6,"00:20:32",1
"17/06/07","00:40",0.0,18.4,67.1,1011.4,297.5,1.1,1.8,325.5,0.00,12.2,20.4,"00:30:08",1
"17/06/07","00:50",0.0,18.5,69.7,1010.7,319.6,1.1,1.7,318.9,0.00,12.9,20.3,"00:45:36",1
"17/06/07","01:00",0.0,18.4,71.9,1010.7,312.4,0.8,1.4,347.7,0.00,13.3,20.4,"00:52:48",1
"17/06/07","01:10",0.0,18.1,72.7,1010.7,317.0,1.1,1.9,321.9,0.00,13.2,20.4,"01:02:00",1
"17/06/07","01:20",0.0,18.0,72.1,1010.4,305.0,0.8,1.4,303.3,0.00,12.9,20.3,"01:19:52",1
"17/06/07","01:30",0.0,18.0,72.4,1010.9,312.4,1.0,1.7,337.2,0.00,13.0,20.5,"01:26:56",1
"17/06/07","01:40",0.0,18.2,72.4,1010.9,287.3,1.1,1.7,269.6,0.00,13.2,20.4,"01:38:00",1
"17/06/07","01:50",0.0,18.4,72.3,1010.7,288.0,1.2,1.9,306.1,0.00,13.4,20.2,"01:46:48",1
"17/06/07","02:00",0.0,18.6,73.2,1010.4,286.7,1.1,1.8,269.0,0.00,13.8,20.3,"01:55:20",1
"17/06/07","02:10",0.0,18.7,74.3,1010.7,305.0,1.2,1.6,323.1,0.00,14.1,20.5,"02:06:32",1
"17/06/07","02:20",0.0,18.8,74.6,1010.2,295.1,1.0,1.4,324.7,0.00,14.2,20.3,"02:10:08",1
"17/06/07","02:30",0.0,18.8,74.7,1010.4,288.9,0.8,1.3,277.3,0.00,14.3,20.3,"02:29:52",1
"17/06/07","02:40",0.0,19.0,74.9,1010.7,320.4,1.5,2.4,325.9,0.00,14.5,20.3,"02:39:20",1
"17/06/07","02:50",0.0,19.0,74.9,1010.2,325.3,1.5,2.5,331.6,0.00,14.5,20.2,"02:44:40",1
"17/06/07","03:00",0.0,19.0,75.2,1010.2,301.6,0.8,1.7,313.2,0.00,14.6,20.3,"02:55:04",1
"17/06/07","03:10",0.0,18.9,76.0,1010.7,311.1,1.2,2.0,316.8,0.00,14.6,20.4,"03:09:44",1
"17/06/07","03:20",0.0,18.9,76.4,1010.2,320.2,0.8,1.7,311.7,0.00,14.7,20.2,"03:11:20",1
"17/06/07","03:30",0.0,18.9,76.8,1010.7,293.1,1.0,2.2,333.3,0.00,14.8,20.1,"03:22:24",1
"17/06/07","03:40",0.0,18.9,77.7,1010.7,326.7,1.6,2.2,337.8,0.00,15.0,20.0,"03:34:48",1
"17/06/07","03:50",0.0,18.9,78.1,1010.7,301.9,1.1,2.0,339.8,0.00,15.0,20.2,"03:45:44",1
"17/06/07","04:00",0.0,19.1,78.5,1010.7,321.5,1.2,1.9,347.0,0.00,15.3,20.1,"03:58:56",1
"17/06/07","04:10",0.0,19.2,79.1,1010.4,345.0,1.3,2.2,355.3,0.00,15.5,20.0,"04:08:00",1
"17/06/07","04:20",0.0,19.1,79.9,1010.4,334.8,1.5,2.2,333.1,0.00,15.6,20.1,"04:14:08",1
"17/06/07","04:30",0.0,19.0,79.7,1010.4,325.0,2.3,3.2,326.2,0.00,15.5,20.0,"04:28:32",1
"17/06/07","04:40",0.0,18.9,79.9,1010.7,321.1,2.2,3.7,318.8,0.00,15.4,20.1,"04:31:12",1
"17/06/07","04:50",0.0,18.7,81.5,1010.2,312.3,1.5,2.5,328.7,0.00,15.5,20.2,"04:42:08",1
"17/06/07","05:00",0.0,18.2,83.4,1010.4,282.7,1.1,1.7,271.2,0.00,15.4,20.0,"04:52:40",1
"17/06/07","05:10",0.0,17.9,85.4,1010.7,308.8,1.2,2.1,333.7,0.00,15.5,20.0,"05:01:44",1
"17/06/07","05:20",0.0,17.7,87.1,1010.4,326.3,1.6,2.8,330.0,0.00,15.6,20.1,"05:11:36",1
"17/06/07","05:30",0.0,17.6,88.3,1010.2,325.6,1.7,3.1,332.0,0.00,15.7,19.8,"05:28:32",1
"17/06/07","05:40",0.0,17.6,89.4,1010.4,320.8,2.1,3.4,314.3,0.00,15.9,20.0,"05:36:00",1
"17/06/07","05:50",0.0,17.6,90.1,1009.7,307.6,1.3,2.5,323.8,0.00,16.0,19.9,"05:40:32",1
"17/06/07","06:00",0.0,17.6,90.6,1010.0,278.4,0.7,1.2,330.9,0.00,16.1,19.7,"05:50:02",1
"17/06/07","06:10",0.0,17.5,90.8,1009.7,298.0,1.0,1.7,330.7,0.00,16.0,19.9,"06:00:16",1
"17/06/07","06:20",0.0,17.6,91.3,1010.0,261.6,0.6,0.8,277.6,0.00,16.2,19.7,"06:10:08",1
"17/06/07","06:30",0.0,17.7,91.4,1010.0,301.6,0.7,1.2,325.5,0.00,16.3,19.9,"06:23:52",1
"17/06/07","06:40",0.0,17.6,91.5,1009.7,275.1,1.0,1.8,264.7,0.00,16.2,19.7,"06:37:04",1
"17/06/07","06:50",0.0,17.7,91.6,1010.0,277.4,1.1,1.8,316.7,0.01,16.4,20.0,"06:41:28",1
"17/06/07","07:00",0.0,17.9,92.0,1009.7,286.8,0.8,1.8,271.1,0.02,16.6,19.8,"06:55:44",1
"17/06/07","07:10",0.0,18.0,91.9,1010.0,286.7,0.8,1.7,311.5,0.02,16.7,19.8,"07:07:44",1
"17/06/07","07:20",0.0,18.2,92.1,1009.7,318.0,1.2,2.0,321.5,0.04,16.9,19.8,"07:17:44",1
"17/06/07","07:30",0.0,18.3,91.9,1009.5,296.3,0.7,1.2,316.8,0.04,17.0,20.1,"07:24:48",1
"17/06/07","07:40",0.0,18.3,91.6,1009.5,311.3,1.1,1.8,320.4,0.04,16.9,19.9,"07:36:32",1
"17/06/07","07:50",0.0,18.5,91.9,1009.5,309.8,1.0,1.7,333.2,0.04,17.2,19.9,"07:40:48",1
"17/06/07","08:00",0.0,18.6,91.8,1010.0,287.4,0.8,1.8,314.4,0.04,17.3,20.0,"07:58:24",1
"17/06/07","08:10",0.0,18.6,91.8,1010.4,329.2,1.5,2.1,343.3,0.02,17.3,20.2,"08:01:28",1
"17/06/07","08:20",0.0,18.6,92.2,1010.2,296.1,0.6,1.1,313.3,0.02,17.3,20.1,"08:11:28",1
"17/06/07","08:30",0.0,18.7,92.2,1010.4,302.3,0.7,1.1,312.4,0.01,17.4,19.8,"08:23:28",1
"17/06/07","08:40",0.0,18.8,92.5,1010.4,291.2,0.6,1.2,326.2,0.01,17.6,20.0,"08:30:56",1
"17/06/07","08:50",0.0,19.0,92.4,1010.0,289.3,0.3,0.8,254.6,0.03,17.8,20.0,"08:46:24",1
"17/06/07","09:00",0.0,19.2,92.3,1010.2,340.8,0.6,1.6,333.1,0.07,18.0,20.2,"08:59:36",1
"17/06/07","09:10",0.0,19.6,91.9,1009.7,340.5,0.3,0.8,347.2,0.10,18.3,20.0,"09:03:44",1
"17/06/07","09:20",0.0,19.6,91.2,1009.5,106.8,0.3,1.0,175.1,0.08,18.2,20.2,"09:13:36",1
"17/06/07","09:30",0.0,19.5,91.1,1010.0,164.8,0.6,1.3,182.0,0.07,18.0,20.2,"09:26:16",1
"17/06/07","09:40",0.0,19.4,90.9,1010.0,17.1,0.3,1.0,28.1,0.05,17.9,20.4,"09:36:40",1
"17/06/07","09:50",0.0,19.4,90.8,1010.0,316.2,0.7,1.2,351.9,0.05,17.9,20.3,"09:41:36",1
"17/06/07","10:00",0.0,19.5,90.9,1009.5,253.7,0.5,1.0,240.6,0.06,18.0,20.2,"09:50:02",1
"17/06/07","10:10",0.0,19.4,90.8,1010.0,255.3,0.5,1.1,227.5,0.03,17.9,20.4,"10:01:12",1
"17/06/07","10:20",0.0,19.4,91.4,1010.0,306.7,0.8,1.7,290.0,0.06,18.0,20.4,"10:14:56",1
"17/06/07","10:30",0.0,19.8,91.1,1009.5,309.6,0.5,1.2,306.0,0.10,18.3,20.4,"10:20:16",1
"17/06/07","10:40",0.0,19.8,90.7,1010.0,324.7,0.5,1.2,327.7,0.11,18.3,20.5,"10:31:20",1
"17/06/07","10:50",0.0,19.9,90.6,1009.5,344.2,0.7,1.6,333.7,0.09,18.4,20.5,"10:48:00",1
"17/06/07","11:00",0.0,19.9,90.3,1009.7,332.3,0.8,1.4,336.3,0.07,18.3,20.6,"10:50:16",1
"17/06/07","11:10",0.0,20.0,90.2,1009.5,309.1,0.8,1.4,323.9,0.07,18.4,20.5,"11:07:24",1
"17/06/07","11:20",0.0,20.1,90.4,1009.5,326.9,0.7,2.2,337.9,0.11,18.5,20.7,"11:15:28",1
"17/06/07","11:30",0.0,20.1,90.0,1009.7,308.6,0.6,1.2,340.2,0.07,18.4,20.6,"11:20:40",1
"17/06/07","11:40",0.0,20.0,89.4,1009.7,298.1,0.6,1.3,338.7,0.11,18.2,20.8,"11:33:52",1
"17/06/07","11:50",0.0,20.3,88.9,1009.3,225.3,0.3,1.3,252.3,0.14,18.4,20.7,"11:46:16",1
"17/06/07","12:00",0.0,20.6,88.1,1009.5,231.2,0.3,1.9,191.6,0.14,18.6,20.7,"11:54:32",1
"17/06/07","12:10",0.0,20.4,87.7,1009.0,190.5,0.5,1.3,230.8,0.10,18.3,21.0,"12:05:04",1
"17/06/07","12:20",0.0,20.5,87.4,1009.3,322.9,0.7,1.4,349.6,0.07,18.4,20.9,"12:10:02",1
"17/06/07","12:30",0.0,20.5,87.5,1009.3,355.7,0.8,1.7,352.0,0.08,18.4,21.0,"12:20:40",1
"17/06/07","12:40",0.0,20.3,87.4,1008.8,342.2,1.1,2.1,343.3,0.08,18.2,20.8,"12:32:00",1
"17/06/07","12:50",0.0,20.2,87.7,1008.6,341.7,0.6,1.6,331.6,0.06,18.1,20.9,"12:45:52",1
"17/06/07","13:00",0.0,20.2,88.6,1008.6,332.5,0.5,1.2,352.0,0.06,18.3,21.0,"12:51:52",1
"17/06/07","13:10",0.0,20.2,89.2,1008.6,274.7,0.6,1.3,260.1,0.07,18.4,21.1,"13:03:04",1
"17/06/07","13:20",0.0,20.3,89.0,1007.8,350.7,0.7,2.0,351.3,0.08,18.5,21.2,"13:14:40",1
"17/06/07","13:30",0.0,20.3,89.2,1008.1,306.3,0.8,1.7,322.8,0.07,18.5,21.0,"13:26:00",1
"17/06/07","13:40",0.0,20.1,89.1,1008.1,331.2,1.2,2.0,334.8,0.06,18.3,21.0,"13:36:32",1
"17/06/07","13:50",0.0,19.9,89.7,1007.8,1.4,0.5,1.3,331.6,0.02,18.2,20.8,"13:40:08",1
"17/06/07","14:00",0.0,19.8,89.7,1007.8,240.7,0.2,0.8,101.7,0.04,18.1,21.0,"13:52:00",1
"17/06/07","14:10",0.0,19.8,89.9,1007.8,324.5,0.1,0.6,128.9,0.05,18.1,20.9,"14:08:24",1
"17/06/07","14:20",0.0,19.7,89.8,1007.6,193.9,0.7,1.8,202.7,0.06,18.0,21.0,"14:14:48",1
"17/06/07","14:30",0.0,19.6,90.0,1007.8,179.8,0.7,1.8,230.3,0.06,18.0,21.0,"14:21:52",1
"17/06/07","14:40",0.0,19.6,89.9,1007.8,202.5,0.7,1.3,187.3,0.07,17.9,20.9,"14:32:16",1
"17/06/07","14:50",0.0,19.6,89.8,1007.8,222.5,0.7,2.0,226.6,0.06,17.9,21.0,"14:46:16",1
"17/06/07","15:00",0.0,19.4,89.6,1008.1,280.3,0.7,1.6,296.2,0.04,17.7,21.0,"14:56:24",1
"17/06/07","15:10",0.0,19.3,89.5,1007.8,291.5,0.6,1.1,335.5,0.03,17.6,20.9,"15:04:00",1
"17/06/07","15:20",0.0,19.3,90.0,1007.6,304.7,0.6,1.8,331.4,0.03,17.7,20.8,"15:18:24",1
"17/06/07","15:30",0.0,19.3,90.0,1007.6,344.7,0.7,1.6,354.6,0.04,17.7,20.8,"15:27:12",1
"17/06/07","15:40",0.0,19.3,90.0,1007.6,8.3,0.6,1.8,357.2,0.05,17.7,20.8,"15:37:36",1
"17/06/07","15:50",0.0,19.2,90.1,1007.6,326.7,0.6,2.0,69.1,0.05,17.6,20.6,"15:41:28",1
"17/06/07","16:00",0.0,19.3,90.6,1007.4,303.6,0.5,1.1,314.0,0.03,17.8,20.7,"15:52:40",1
"17/06/07","16:10",0.0,19.2,90.6,1007.6,28.7,0.6,1.2,334.4,0.03,17.7,20.6,"16:05:36",1
"17/06/07","16:20",0.0,19.2,91.0,1007.1,34.8,0.3,1.0,103.9,0.04,17.7,20.6,"16:10:24",1
"17/06/07","16:30",0.0,19.2,91.1,1007.1,42.3,0.5,1.0,342.7,0.04,17.8,20.8,"16:22:00",1
"17/06/07","16:40",0.0,19.1,91.3,1006.9,95.8,0.6,1.8,121.2,0.03,17.7,20.6,"16:36:48",1
"17/06/07","16:50",0.0,19.1,91.8,1007.1,91.9,0.3,1.1,122.9,0.04,17.8,20.9,"16:40:48",1
"17/06/07","17:00",0.0,19.1,91.8,1006.7,101.2,0.3,1.3,119.0,0.02,17.8,20.8,"16:57:04",1
"17/06/07","17:10",0.0,19.0,92.1,1007.1,54.5,0.3,1.1,121.0,0.01,17.7,20.6,"17:01:52",1
"17/06/07","17:20",0.0,18.9,92.3,1006.9,125.9,0.3,1.2,116.0,0.00,17.7,20.6,"17:12:24",1
"17/06/07","17:30",0.0,18.7,92.5,1006.9,41.9,0.5,1.7,39.0,0.00,17.5,20.8,"17:23:12",1
"17/06/07","17:40",0.0,18.7,92.9,1006.7,356.5,0.2,1.0,66.0,0.00,17.6,20.6,"17:31:52",1
"17/06/07","17:50",0.0,18.8,93.2,1006.2,108.4,0.2,1.0,110.1,0.00,17.7,20.5,"17:49:44",1
"17/06/07","18:00",0.0,18.7,93.5,1006.7,112.7,0.3,1.3,170.1,0.00,17.7,20.6,"17:56:40",1
"17/06/07","18:10",0.0,18.7,93.5,1006.4,60.7,0.2,1.1,31.4,0.00,17.7,20.4,"18:07:04",1
"17/06/07","18:20",0.0,18.7,93.6,1006.7,349.9,0.5,1.1,353.8,0.00,17.7,20.4,"18:17:28",1
"17/06/07","18:30",0.0,18.6,93.7,1006.9,309.4,0.5,1.6,341.9,0.00,17.6,20.4,"18:20:40",1
"17/06/07","18:40",0.0,18.5,93.9,1006.9,304.3,0.7,1.7,336.8,0.00,17.5,20.3,"18:39:36",1
"17/06/07","18:50",0.0,18.5,94.1,1007.1,336.0,1.1,1.8,342.1,0.00,17.6,20.4,"18:48:40",1
"17/06/07","19:00",0.0,18.4,94.3,1006.9,348.5,0.6,1.8,338.8,0.00,17.5,20.3,"18:50:16",1
"17/06/07","19:10",0.0,18.5,94.5,1007.1,340.3,0.5,0.9,318.3,0.00,17.6,20.4,"19:04:08",1
"17/06/07","19:20",0.2,18.3,94.5,1007.1,135.8,0.3,1.3,133.9,0.00,17.4,20.2,"19:14:32",1
"17/06/07","19:30",0.0,18.2,94.8,1006.9,112.4,0.2,1.0,107.8,0.00,17.4,20.3,"19:26:40",1
"17/06/07","19:40",0.0,18.1,94.6,1007.1,150.1,0.3,1.3,71.7,0.00,17.3,20.2,"19:37:36",1
"17/06/07","19:50",0.0,17.9,94.7,1007.1,194.6,0.7,1.3,196.1,0.00,17.1,20.1,"19:46:24",1
"17/06/07","20:00",0.0,17.8,95.0,1007.4,245.7,0.3,0.9,201.2,0.00,17.0,20.1,"19:50:16",1
"17/06/07","20:10",0.0,17.8,95.2,1007.1,321.1,0.5,1.4,152.5,0.00,17.1,20.0,"20:05:36",1
"17/06/07","20:20",0.0,17.9,95.2,1006.9,21.8,0.5,1.0,348.8,0.00,17.2,19.9,"20:14:16",1
"17/06/07","20:30",0.0,17.9,95.3,1007.1,178.5,0.5,1.1,176.3,0.00,17.2,20.1,"20:27:36",1
"17/06/07","20:40",0.0,17.8,95.4,1006.9,222.5,0.3,1.2,121.2,0.00,17.1,19.8,"20:39:20",1
"17/06/07","20:50",0.0,17.8,95.4,1006.9,165.4,0.7,2.1,169.4,0.00,17.1,19.9,"20:48:40",1
"17/06/07","21:00",0.0,17.8,95.6,1007.1,177.2,0.8,1.6,137.6,0.00,17.1,19.8,"20:58:40",1
"17/06/07","21:10",0.0,17.8,95.7,1006.9,190.8,1.5,2.8,208.3,0.00,17.1,19.8,"21:05:12",1
"17/06/07","21:20",0.0,17.8,95.8,1006.9,195.0,1.1,2.6,205.9,0.00,17.2,19.6,"21:10:08",1
"17/06/07","21:30",0.0,17.8,95.9,1007.1,207.5,0.5,1.4,146.6,0.00,17.2,19.7,"21:29:20",1
"17/06/07","21:40",0.0,17.9,95.9,1007.1,153.6,0.7,1.4,173.2,0.00,17.3,19.7,"21:38:24",1
"17/06/07","21:50",0.0,17.9,96.0,1006.9,167.5,0.6,1.7,163.3,0.00,17.3,19.6,"21:43:04",1
"17/06/07","22:00",0.0,17.9,96.0,1006.4,118.1,0.3,1.1,85.2,0.00,17.3,19.8,"21:53:12",1
"17/06/07","22:10",0.0,17.8,96.0,1006.2,97.2,0.3,1.6,122.1,0.00,17.2,19.6,"22:02:40",1
"17/06/07","22:20",0.0,17.8,96.1,1006.4,144.5,0.1,0.9,122.9,0.00,17.2,19.5,"22:10:56",1
"17/06/07","22:30",0.0,17.8,96.1,1006.2,331.0,0.2,0.8,335.9,0.00,17.2,19.5,"22:24:40",1
"17/06/07","22:40",0.0,17.8,96.0,1006.0,339.2,0.5,1.0,340.2,0.00,17.2,19.5,"22:37:20",1
"17/06/07","22:50",0.0,17.7,96.1,1005.7,290.6,0.5,0.9,306.9,0.00,17.1,19.7,"22:44:24",1
"17/06/07","23:00",0.0,17.7,96.1,1005.5,293.5,0.5,0.8,273.5,0.00,17.1,19.6,"22:51:28",1
"17/06/07","23:10",0.0,17.7,96.2,1006.0,292.8,0.5,1.2,320.4,0.00,17.1,19.5,"23:08:16",1
"17/06/07","23:20",0.0,17.6,96.2,1005.5,303.8,0.6,1.1,341.8,0.00,17.0,19.6,"23:17:44",1
"17/06/07","23:30",0.0,17.6,96.2,1005.5,297.6,0.2,0.6,288.6,0.00,17.0,19.7,"23:22:40",1
"17/06/07","23:40",0.0,17.6,96.3,1005.2,290.4,0.6,1.1,302.1,0.00,17.0,19.4,"23:36:48",1
"17/06/07","23:50",0.0,17.5,96.3,1005.2,306.5,0.7,1.2,317.6,0.00,16.9,19.7,"23:47:52",1
"17/06/07","24:00",0.0,17.5,96.4,1005.2,259.6,0.6,1.0,257.4,0.00,17.0,19.5,"23:52:16",1
